Location: Kellogg
(38.0159°N, 90.0546°W)
Time: 11:42:11
(UTC+00:00)

ACS3 Solar Sail - Pass Details

Date: 17 August 2024
Orbit: 973 x 1034 km, 97.4° (Epoch: 16 September)

Event Time Altitude Azimuth Distance (km) Brightness Sun altitude
Exits shadow 02:55:30 28° 177° (S) 1,768 2.8 -22.3°
Maximum altitude 02:58:59 77° 259° (W) 1,043 1.9 -22.8°
Drops below altitude 10° 03:05:22 10° 345° (NNW) 2,826 5.0 -23.8°
Sets 03:07:55 0° 347° (NNW) 3,790 5.7 -24.2°
